[[{"header":{"parameterUnit":"m.s-1","parameterCategory":1,"la1":30.2991,"la2":30.254,"lo1":-89.0895,"lo2":-89.0444,"dy":0.0017,"dx":0.0017,"nx":28,"ny":28,"refTime":"2024-02-18T03:00:00:Z","depth":0,"parameterNumber":2,"parameterNumberName":"U-component_of_WINDS"},"data":[0,0,0,0,0,0,0,0,0,0,0,0,0,0,0,0,0,0,0,0,0,0,0,0,0,0,0,0,0,0,0,0,0,0,0,0,0,0,0,0,0,0,0,0,0,0,0,0,0,0,0,0,0,0,0,0,0,0,0.2775,0.2775,0,0.275,0.275,0.275,0.278,0.2782,0.2783,0.2784,0.2755,0.2753,0.2752,0,0,0,0,0,0,0,0,0,0,0,0,0,0.2848,0.2846,0.2775,0.2775,0.2775,0.275,0.275,0.275,0.278,0.2782,0.2783,0.2784,0.2756,0.2754,0.2751,0,0,0,0,0,0,0,0,0,0,0,0,0,0.2819,0.2846,0.2775,0.2787,0.2788,0.275,0.275,0.275,0.278,0.2782,0.2783,0.2785,0.2757,0.2754,0.2751,0.27,0,0,0.2743,0.2742,0,0,0,0,0,0,0,0,0.2821,0.2816,0.2786,0.2786,0.2787,0.277,0.2765,0.2733,0.278,0.2783,0.2784,0.2786,0.2759,0.2756,0.2747,0.2699,0.2698,0.2743,0.2741,0.274,0.2739,0,0,0,0,0,0,0,0.2823,0.2817,0.2765,0.2785,0.2786,0.2793,0.2791,0.2759,0.2761,0.2783,0.2785,0.2782,0.2759,0.275,0.2747,0.2697,0.2743,0.274,0.2739,0.2737,0.2606,0.2604,0,0,0,0,0,0,0.2823,0.2819,0.2766,0.2765,0.2809,0.279,0.2788,0.2774,0.2762,0.2762,0.278,0.2783,0.2754,0.275,0.2746,0.2685,0.274,0.2737,0.2736,0.2608,0.2605,0.2603,0,0,0,0,0,0,0.2825,0.2818,0.2767,0.2792,0.2786,0.2787,0.2771,0.2773,0.2763,0.276,0.276,0.277,0.2755,0.275,0.2712,0.2685,0.2736,0.2733,0.261,0.2607,0.2604,0.2563,0,0,0,0,0,0,0.2827,0.2819,0.28,0.2792,0.2785,0.2733,0.277,0.2771,0.2759,0.2762,0.2751,0.275,0.2756,0.2715,0.2709,0.2682,0.2731,0.2612,0.2609,0.2605,0.2567,0.2559,0.2553,0,0,0,0,0,0.2829,0.2788,0.2799,0.2792,0.2761,0.2732,0.2728,0.2736,0.2756,0.2737,0.2735,0.2751,0.2689,0.2711,0.2704,0.2676,0.2614,0.261,0.2606,0.257,0.2561,0.2553,0,0,0,0,0,0,0.2791,0.2787,0.2799,0.2754,0.2743,0.2737,0.2713,0.2726,0.2708,0.2712,0.2722,0.2719,0.2678,0.2674,0.2698,0.2626,0.2655,0.2649,0.263,0.2621,0.2615,0.2616,0.2729,0,0,0,0,0,0.2778,0.2756,0.2753,0.2714,0.2708,0.2711,0.2699,0.2706,0.2695,0.269,0.2686,0.2673,0.2651,0.2636,0.2616,0.2567,0.2565,0.2544,0.2537,0.2531,0.2526,0.2499,0.249,0.259,0.259,0.259,0,0,0.275,0.2745,0.273,0.2706,0.2699,0.2674,0.2707,0.268,0.2661,0.2686,0.2649,0.2646,0.2633,0.2589,0.257,0.2584,0.2498,0.2526,0.2522,0.2519,0.2494,0.2485,0.2476,0.2587,0.2587,0.2588,0,0,0.2686,0.268,0.2647,0.2639,0.2628,0.2631,0.2623,0.2615,0.2614,0.2578,0.2596,0.2574,0.2536,0.2526,0.2516,0.2451,0.2464,0.2444,0.2406,0.238,0.2372,0.2365,0.2341,0.2332,0.2438,0.2438,0.2438,0,0.2651,0.2616,0.2628,0.2599,0.2588,0.2611,0.2577,0.2569,0.2551,0.2542,0.2559,0.2513,0.2506,0.246,0.2444,0.2435,0.2426,0.2444,0.2373,0.2366,0.236,0.2337,0.2327,0.2436,0.2436,0.2436,0.2437,0,0.2574,0.255,0.2524,0.2508,0.2494,0.2463,0.2469,0.2454,0.2463,0.2464,0.2427,0.242,0.2399,0.2389,0.2397,0.2344,0.2354,0.2372,0.24,0.2347,0.2326,0.2317,0.2432,0.2433,0.2434,0.2434,0,0,0.2483,0.2475,0.2465,0.2458,0.2448,0.2429,0.24,0.238,0.2366,0.2354,0.2329,0.2297,0.2314,0.2302,0.231,0.2288,0.2235,0.2308,0.2308,0.2294,0.2176,0.2162,0.2151,0.2245,0.2244,0.2242,0.2177,0,0.2418,0.2367,0.2377,0.2327,0.2304,0.2327,0.2301,0.2292,0.2292,0.2273,0.2273,0.225,0.2275,0.2268,0.2247,0.2246,0.2211,0.2251,0.2221,0.2219,0.2221,0.214,0.2124,0.2063,0.2169,0.2167,0.2166,0,0.2335,0.232,0.2268,0.2263,0.2253,0.223,0.2213,0.2195,0.2185,0.2187,0.2175,0.2188,0.2158,0.2189,0.2147,0.2174,0.2163,0.2161,0.2158,0.2154,0.2188,0.2132,0.2043,0.2034,0.2153,0.2154,0.2155,0,0.2272,0.224,0.2204,0.2198,0.2191,0.2174,0.217,0.2163,0.215,0.2136,0.2128,0.211,0.2099,0.2085,0.2092,0.2114,0.2049,0.208,0.2049,0.2048,0.2032,0.2033,0.1938,0.2027,0.2028,0.2028,0.2028,0,0.2197,0.2164,0.2176,0.2154,0.2118,0.2131,0.2094,0.2093,0.2086,0.2064,0.2083,0.2061,0.2073,0.2052,0.2058,0.2022,0.2018,0.2018,0.2019,0.2015,0.2015,0.2006,0.201,0.2025,0.2026,0.2026,0.2027,0,0.212,0.2127,0.209,0.2087,0.2086,0.2059,0.2056,0.2036,0.2039,0.2011,0.2005,0.2009,0.1986,0.1992,0.1967,0.1971,0.1926,0.1934,0.1929,0.193,0.1898,0.19,0.1793,0.178,0.1879,0.1878,0.1877,0,0.2071,0.2046,0.2041,0.2028,0.2023,0.2002,0.199,0.2002,0.1989,0.1977,0.1958,0.1937,0.192,0.1883,0.1883,0.1864,0.1871,0.1835,0.1868,0.1865,0.1869,0.1869,0.1867,0.1827,0.1826,0.1825,0.1824,0,0.1982,0.1987,0.197,0.1954,0.1939,0.1927,0.1916,0.1904,0.1916,0.19,0.1877,0.1865,0.184,0.1819,0.1802,0.1798,0.1812,0.1815,0.1806,0.18,0.1798,0.1798,0.1909,0.1816,0.1817,0.1818,0.1818,0.1818,0.1917,0.1896,0.1889,0.1869,0.1863,0.1853,0.1834,0.1835,0.1817,0.1798,0.1806,0.178,0.1772,0.1751,0.1745,0.1724,0.1738,0.1726,0.1722,0.1719,0.1714,0.1804,0.1722,0.1722,0.1722,0.1722,0.1722,0,0.1828,0.1826,0.1807,0.1792,0.1777,0.1794,0.1784,0.1769,0.1746,0.1738,0.1722,0.1696,0.1676,0.1676,0.1657,0.1641,0.1647,0.1636,0.1636,0.1635,0.1704,0.1712,0.1631,0.1631,0.1631,0.1631,0.1631,0.1631,0.178,0.1746,0.175,0.1713,0.1711,0.1686,0.1678,0.1669,0.1663,0.1633,0.1617,0.1618,0.1613,0.1594,0.1577,0.1577,0.1569,0.1554,0.1557,0.1621,0.163,0.1638,0.1647,0.1552,0.1552,0.1489,0.1489,0.1488]},{"header":{"parameterUnit":"m.s-1","parameterCategory":1,"la1":30.2991,"la2":30.254,"lo1":-89.0895,"lo2":-89.0444,"dy":0.0017,"dx":0.0017,"nx":28,"ny":28,"refTime":"2024-02-18T03:00:00:Z","depth":0,"parameterNumber":3,"parameterNumberName":"V-component_of_WINDS"},"data":[0,0,0,0,0,0,0,0,0,0,0,0,0,0,0,0,0,0,0,0,0,0,0,0,0,0,0,0,0,0,0,0,0,0,0,0,0,0,0,0,0,0,0,0,0,0,0,0,0,0,0,0,0,0,0,0,0,0,-4.8216,-4.8217,0,-4.8336,-4.8338,-4.8339,-4.827,-4.8266,-4.8263,-4.826,-4.8381,-4.8387,-4.8393,0,0,0,0,0,0,0,0,0,0,0,0,0,-4.7921,-4.7927,-4.8215,-4.8217,-4.8219,-4.8336,-4.8338,-4.8339,-4.827,-4.8266,-4.8262,-4.8258,-4.8378,-4.8386,-4.8394,0,0,0,0,0,0,0,0,0,0,0,0,0,-4.8046,-4.7929,-4.8215,-4.8198,-4.8198,-4.8336,-4.8338,-4.834,-4.8271,-4.8266,-4.8261,-4.8256,-4.8376,-4.8385,-4.8395,-4.8555,0,0,-4.8424,-4.8428,0,0,0,0,0,0,0,0,-4.8039,-4.8057,-4.8199,-4.82,-4.82,-4.8283,-4.8278,-4.8412,-4.8273,-4.8243,-4.826,-4.8254,-4.8352,-4.8363,-4.8397,-4.8561,-4.8566,-4.8425,-4.843,-4.8435,-4.8437,0,0,0,0,0,0,0,-4.8031,-4.8051,-4.8263,-4.8201,-4.8202,-4.8183,-4.8196,-4.8303,-4.8325,-4.8246,-4.8241,-4.8256,-4.8351,-4.8388,-4.8399,-4.8567,-4.8424,-4.8433,-4.8439,-4.8442,-4.8867,-4.8872,0,0,0,0,0,0,-4.8024,-4.8045,-4.8259,-4.8267,-4.8105,-4.8193,-4.8206,-4.8261,-4.8323,-4.8328,-4.826,-4.8253,-4.8374,-4.8388,-4.8403,-4.8594,-4.8434,-4.8443,-4.8449,-4.8861,-4.8868,-4.8874,0,0,0,0,0,0,-4.8017,-4.8043,-4.8254,-4.8155,-4.818,-4.8203,-4.8265,-4.8266,-4.8303,-4.8335,-4.8338,-4.8294,-4.8371,-4.839,-4.8518,-4.8597,-4.8448,-4.8456,-4.8855,-4.8863,-4.8871,-4.8978,0,0,0,0,0,0,-4.8009,-4.8042,-4.8104,-4.8157,-4.8186,-4.8369,-4.827,-4.8272,-4.832,-4.8311,-4.8367,-4.8372,-4.8368,-4.8504,-4.8527,-4.8608,-4.8464,-4.8848,-4.8859,-4.8868,-4.8967,-4.8989,-4.9007,0,0,0,0,0,-4.7999,-4.8129,-4.8107,-4.8134,-4.8264,-4.8373,-4.839,-4.8384,-4.8327,-4.8389,-4.8409,-4.837,-4.8585,-4.8517,-4.8543,-4.8628,-4.8843,-4.8856,-4.8868,-4.8958,-4.8985,-4.9007,0,0,0,0,0,0,-4.8084,-4.8135,-4.8112,-4.8263,-4.8315,-4.8361,-4.844,-4.8412,-4.848,-4.8469,-4.8457,-4.8471,-4.8604,-4.8628,-4.8552,-4.8785,-4.8705,-4.8723,-4.8765,-4.879,-4.8809,-4.8801,-4.8472,0,0,0,0,0,-4.8121,-4.8206,-4.8246,-4.8375,-4.8402,-4.8417,-4.8464,-4.8455,-4.8507,-4.8528,-4.8558,-4.8609,-4.8688,-4.874,-4.8814,-4.897,-4.8981,-4.9041,-4.9061,-4.9077,-4.9093,-4.9176,-4.9203,-4.8915,-4.8915,-4.8915,0,0,-4.8197,-4.8235,-4.829,-4.8393,-4.8432,-4.8519,-4.8435,-4.8532,-4.8596,-4.8543,-4.8665,-4.8689,-4.8745,-4.8887,-4.8951,-4.8912,-4.9175,-4.9093,-4.9106,-4.9113,-4.9192,-4.9219,-4.9243,-4.8924,-4.8922,-4.8921,0,0,-4.838,-4.8418,-4.8529,-4.857,-4.863,-4.8638,-4.8665,-4.8717,-4.873,-4.8853,-4.8815,-4.889,-4.9027,-4.9068,-4.9107,-4.9305,-4.9271,-4.9329,-4.9433,-4.9514,-4.9537,-4.9557,-4.9627,-4.9652,-4.9344,-4.9345,-4.9345,0,-4.8466,-4.8598,-4.859,-4.869,-4.8735,-4.8691,-4.8803,-4.8842,-4.8923,-4.8956,-4.891,-4.908,-4.9115,-4.9266,-4.9314,-4.9347,-4.9376,-4.9323,-4.9534,-4.9554,-4.9573,-4.9639,-4.9666,-4.9351,-4.9351,-4.935,-4.9349,0,-4.8701,-4.8793,-4.8875,-4.8956,-4.9011,-4.9116,-4.9122,-4.9179,-4.9164,-4.9177,-4.9302,-4.9343,-4.9424,-4.9459,-4.9446,-4.9608,-4.9581,-4.9536,-4.9454,-4.9607,-4.9669,-4.9695,-4.9361,-4.9359,-4.9357,-4.9355,0,0,-4.8943,-4.9016,-4.9046,-4.9082,-4.9144,-4.9214,-4.9316,-4.9397,-4.9445,-4.9502,-4.9586,-4.9702,-4.966,-4.9704,-4.9695,-4.9766,-4.9919,-4.9712,-4.9713,-4.9748,-5.0099,-5.0133,-5.0163,-4.9897,-4.9902,-4.9906,-5.0094,0,-4.9129,-4.931,-4.9305,-4.9472,-4.9556,-4.9515,-4.9603,-4.965,-4.9665,-4.9737,-4.9752,-4.9834,-4.9773,-4.9799,-4.9868,-4.9886,-4.9989,-4.9872,-4.9975,-4.9978,-4.9962,-5.0195,-5.0232,-5.0408,-5.0118,-5.0122,-5.0125,0,-4.9372,-4.9438,-4.9614,-4.9663,-4.9698,-4.9778,-4.985,-4.992,-4.9972,-4.9977,-5.0026,-5.0005,-5.0107,-5.0023,-5.0163,-5.0083,-5.0124,-5.014,-5.0146,-5.0156,-5.0061,-5.0211,-5.0464,-5.049,-5.0164,-5.0161,-5.0158,0,-4.953,-4.9662,-4.9784,-4.9816,-4.9876,-4.9933,-4.9961,-5.0007,-5.0055,-5.0118,-5.0149,-5.0223,-5.0263,-5.032,-5.0318,-5.0257,-5.0459,-5.0375,-5.0466,-5.0466,-5.051,-5.0508,-5.0774,-5.0537,-5.0537,-5.0536,-5.0536,0,-4.974,-4.9849,-4.9856,-4.9931,-5.0052,-5.0044,-5.0163,-5.0184,-5.0226,-5.0303,-5.0271,-5.0344,-5.0338,-5.0412,-5.0411,-5.0526,-5.0545,-5.0551,-5.0549,-5.0554,-5.0553,-5.0581,-5.0569,-5.0543,-5.0542,-5.0541,-5.0539,0,-4.9937,-4.9946,-5.0076,-5.0123,-5.0136,-5.0223,-5.0262,-5.0332,-5.0343,-5.0442,-5.0464,-5.0481,-5.0566,-5.057,-5.0668,-5.0667,-5.0807,-5.0792,-5.079,-5.0787,-5.0877,-5.0869,-5.1171,-5.1209,-5.0948,-5.095,-5.0952,0,-5.007,-5.0153,-5.0208,-5.0258,-5.0289,-5.037,-5.0419,-5.0414,-5.0466,-5.053,-5.0593,-5.0674,-5.0739,-5.0876,-5.0896,-5.097,-5.0956,-5.1057,-5.0967,-5.0969,-5.0957,-5.0952,-5.096,-5.1074,-5.1077,-5.108,-5.1082,0,-5.0305,-5.0305,-5.0378,-5.0452,-5.0512,-5.057,-5.0624,-5.0666,-5.0667,-5.0726,-5.0813,-5.0864,-5.0963,-5.1044,-5.1115,-5.1141,-5.1112,-5.111,-5.1134,-5.114,-5.1135,-5.1138,-5.0838,-5.1103,-5.1101,-5.1099,-5.1098,-5.1097,-5.0474,-5.0546,-5.0596,-5.0677,-5.0717,-5.0768,-5.0836,-5.0856,-5.0928,-5.1009,-5.1001,-5.1097,-5.1144,-5.1237,-5.127,-5.1343,-5.1308,-5.1345,-5.1354,-5.1363,-5.1372,-5.1124,-5.1356,-5.1355,-5.1355,-5.1354,-5.1354,0,-5.0707,-5.0737,-5.0812,-5.0889,-5.0953,-5.092,-5.0977,-5.1032,-5.1117,-5.1165,-5.1229,-5.1328,-5.1406,-5.1432,-5.1507,-5.1561,-5.1549,-5.1581,-5.1577,-5.1583,-5.1399,-5.137,-5.1589,-5.1589,-5.1589,-5.1589,-5.1589,-5.1589,-5.0836,-5.0955,-5.0961,-5.1099,-5.1127,-5.1222,-5.1258,-5.1303,-5.1341,-5.1453,-5.1518,-5.1535,-5.1573,-5.1651,-5.172,-5.1726,-5.1755,-5.1792,-5.1792,-5.162,-5.1596,-5.1574,-5.1546,-5.1799,-5.1799,-5.197,-5.1971,-5.1973]}]]